Time,TemperatureF,DewpointF,PressureIn,WindDirection,WindDirectionDegrees,WindSpeedMPH,WindSpeedGustMPH,Humidity,HourlyPrecipIn,Conditions,Clouds,dailyrainin,SoftwareType,DateUTC
2013-02-11 00:12:00,38.0,34.0,30.33,NNW,344,0.0,-999.0,85,-99.99,,,0.00,weatherlink.com 1.10,2013-02-11 08:12:00,
2013-02-11 00:27:00,37.8,34.0,30.33,NNW,344,0.0,-999.0,85,-99.99,,,0.00,weatherlink.com 1.10,2013-02-11 08:27:00,
2013-02-11 00:42:00,37.5,33.0,30.32,NNW,348,0.0,-999.0,85,-99.99,,,0.00,weatherlink.com 1.10,2013-02-11 08:42:00,
2013-02-11 00:57:00,37.4,33.0,30.33,NNW,348,0.0,-999.0,85,-99.99,,,0.00,weatherlink.com 1.10,2013-02-11 08:57:00,
2013-02-11 01:12:00,37.1,33.0,30.34,NNW,348,0.0,-999.0,85,-99.99,,,0.00,weatherlink.com 1.10,2013-02-11 09:12:00,
2013-02-11 01:27:00,37.0,33.0,30.33,NNW,348,0.0,-999.0,85,-99.99,,,0.00,weatherlink.com 1.10,2013-02-11 09:27:00,
2013-02-11 01:42:00,36.9,33.0,30.34,NNW,348,0.0,-999.0,85,-99.99,,,0.00,weatherlink.com 1.10,2013-02-11 09:42:00,
2013-02-11 01:57:00,36.8,33.0,30.34,NNW,348,0.0,-999.0,85,-99.99,,,0.00,weatherlink.com 1.10,2013-02-11 09:57:00,
2013-02-11 02:12:00,36.8,33.0,30.34,NNW,348,0.0,-999.0,85,-99.99,,,0.00,weatherlink.com 1.10,2013-02-11 10:12:00,
2013-02-11 02:27:00,36.8,33.0,30.34,NNW,348,0.0,-999.0,85,-99.99,,,0.00,weatherlink.com 1.10,2013-02-11 10:27:00,
2013-02-11 02:42:00,36.8,32.0,30.33,WNW,298,1.0,-999.0,84,-99.99,,,0.00,weatherlink.com 1.10,2013-02-11 10:42:00,
2013-02-11 02:57:00,36.9,33.0,30.33,WSW,256,0.0,-999.0,85,-99.99,,,0.00,weatherlink.com 1.10,2013-02-11 10:57:00,
2013-02-11 03:12:00,37.0,33.0,30.33,WSW,256,0.0,-999.0,85,-99.99,,,0.00,weatherlink.com 1.10,2013-02-11 11:12:00,
2013-02-11 03:27:00,37.2,33.0,30.33,SW,234,0.0,-999.0,85,-99.99,,,0.00,weatherlink.com 1.10,2013-02-11 11:27:00,
2013-02-11 03:42:00,37.1,33.0,30.33,SW,234,0.0,-999.0,85,-99.99,,,0.00,weatherlink.com 1.10,2013-02-11 11:42:00,
2013-02-11 03:57:00,37.0,33.0,30.32,SW,234,0.0,-999.0,84,-99.99,,,0.00,weatherlink.com 1.10,2013-02-11 11:57:00,
2013-02-11 04:12:00,36.9,33.0,30.33,SW,234,0.0,-999.0,84,-99.99,,,0.00,weatherlink.com 1.10,2013-02-11 12:12:00,
2013-02-11 04:27:00,36.8,32.0,30.33,SW,234,0.0,-999.0,84,-99.99,,,0.00,weatherlink.com 1.10,2013-02-11 12:27:00,
2013-02-11 04:42:00,36.8,32.0,30.33,SW,234,0.0,-999.0,84,-99.99,,,0.00,weatherlink.com 1.10,2013-02-11 12:42:00,
2013-02-11 04:57:00,36.8,32.0,30.34,SW,234,0.0,-999.0,84,-99.99,,,0.00,weatherlink.com 1.10,2013-02-11 12:57:00,
2013-02-11 05:12:00,36.9,33.0,30.34,SW,234,0.0,-999.0,84,-99.99,,,0.00,weatherlink.com 1.10,2013-02-11 13:12:00,
2013-02-11 05:27:00,37.1,33.0,30.34,SW,234,0.0,-999.0,84,-99.99,,,0.00,weatherlink.com 1.10,2013-02-11 13:27:00,
2013-02-11 05:42:00,37.2,33.0,30.34,SW,234,0.0,-999.0,84,-99.99,,,0.00,weatherlink.com 1.10,2013-02-11 13:42:00,
2013-02-11 05:57:00,37.1,33.0,30.34,SW,234,0.0,-999.0,84,-99.99,,,0.00,weatherlink.com 1.10,2013-02-11 13:57:00,
2013-02-11 06:12:00,37.2,33.0,30.33,SW,234,0.0,-999.0,84,-99.99,,,0.00,weatherlink.com 1.10,2013-02-11 14:12:00,
2013-02-11 06:27:00,37.2,33.0,30.34,SW,228,0.0,-999.0,84,-99.99,,,0.00,weatherlink.com 1.10,2013-02-11 14:27:00,
2013-02-11 06:42:00,36.9,33.0,30.34,SW,228,0.0,-999.0,84,-99.99,,,0.00,weatherlink.com 1.10,2013-02-11 14:42:00,
2013-02-11 06:57:00,36.8,32.0,30.34,SW,228,0.0,-999.0,84,-99.99,,,0.00,weatherlink.com 1.10,2013-02-11 14:57:00,
2013-02-11 07:12:00,36.8,32.0,30.34,SW,228,0.0,-999.0,84,-99.99,,,0.00,weatherlink.com 1.10,2013-02-11 15:12:00,
2013-02-11 07:27:00,36.8,32.0,30.34,SW,228,0.0,-999.0,84,-99.99,,,0.00,weatherlink.com 1.10,2013-02-11 15:27:00,
2013-02-11 07:42:00,36.8,32.0,30.34,SW,228,0.0,-999.0,84,-99.99,,,0.00,weatherlink.com 1.10,2013-02-11 15:42:00,
2013-02-11 07:57:00,36.8,32.0,30.35,SW,228,0.0,-999.0,84,-99.99,,,0.00,weatherlink.com 1.10,2013-02-11 15:57:00,
2013-02-11 08:12:00,36.8,32.0,30.35,SW,228,0.0,-999.0,84,-99.99,,,0.00,weatherlink.com 1.10,2013-02-11 16:12:00,
2013-02-11 08:27:00,36.9,33.0,30.35,SW,228,0.0,-999.0,84,-99.99,,,0.00,weatherlink.com 1.10,2013-02-11 16:27:00,
2013-02-11 08:42:00,37.3,33.0,30.35,SW,228,0.0,-999.0,84,-99.99,,,0.00,weatherlink.com 1.10,2013-02-11 16:42:00,
2013-02-11 08:57:00,37.9,33.0,30.35,SW,228,0.0,-999.0,83,-99.99,,,0.00,weatherlink.com 1.10,2013-02-11 16:57:00,
2013-02-11 09:12:00,38.6,34.0,30.36,SW,228,0.0,-999.0,84,-99.99,,,0.00,weatherlink.com 1.10,2013-02-11 17:12:00,
2013-02-11 09:27:00,39.4,35.0,30.36,SW,228,0.0,-999.0,84,-99.99,,,0.00,weatherlink.com 1.10,2013-02-11 17:27:00,
2013-02-11 09:42:00,40.3,36.0,30.36,SW,228,0.0,-999.0,84,-99.99,,,0.00,weatherlink.com 1.10,2013-02-11 17:42:00,
2013-02-11 09:57:00,40.8,37.0,30.36,SW,229,0.0,-999.0,85,-99.99,,,0.00,weatherlink.com 1.10,2013-02-11 17:57:00,
2013-02-11 10:12:00,40.7,37.0,30.36,ESE,108,0.0,-999.0,85,-99.99,,,0.00,weatherlink.com 1.10,2013-02-11 18:12:00,
2013-02-11 10:27:00,41.3,37.0,30.36,ESE,108,0.0,-999.0,85,-99.99,,,0.00,weatherlink.com 1.10,2013-02-11 18:27:00,
2013-02-11 10:42:00,42.1,38.0,30.36,ESE,107,0.0,-999.0,85,-99.99,,,0.00,weatherlink.com 1.10,2013-02-11 18:42:00,
2013-02-11 10:57:00,42.8,39.0,30.36,ESE,108,0.0,-999.0,86,-99.99,,,0.00,weatherlink.com 1.10,2013-02-11 18:57:00,
2013-02-11 11:12:00,43.7,40.0,30.36,South,183,3.0,-999.0,85,-99.99,,,0.00,weatherlink.com 1.10,2013-02-11 19:12:00,
2013-02-11 11:27:00,43.6,39.0,30.36,SSW,198,0.0,-999.0,84,-99.99,,,0.00,weatherlink.com 1.10,2013-02-11 19:27:00,
2013-02-11 11:42:00,44.0,39.0,30.36,SW,236,3.0,-999.0,83,-99.99,,,0.00,weatherlink.com 1.10,2013-02-11 19:42:00,
2013-02-11 11:57:00,43.7,39.0,30.36,South,178,0.0,-999.0,84,-99.99,,,0.00,weatherlink.com 1.10,2013-02-11 19:57:00,
2013-02-11 12:12:00,43.8,39.0,30.36,East,100,3.0,-999.0,84,-99.99,,,0.00,weatherlink.com 1.10,2013-02-11 20:12:00,
2013-02-11 12:27:00,44.2,40.0,30.35,East,92,1.0,-999.0,84,-99.99,,,0.00,weatherlink.com 1.10,2013-02-11 20:27:00,
2013-02-11 12:42:00,44.2,40.0,30.35,SE,132,0.0,-999.0,85,-99.99,,,0.00,weatherlink.com 1.10,2013-02-11 20:42:00,
2013-02-11 12:57:00,44.7,41.0,30.35,SE,146,0.0,-999.0,85,-99.99,,,0.00,weatherlink.com 1.10,2013-02-11 20:57:00,
2013-02-11 13:12:00,44.7,41.0,30.35,SSW,196,0.0,-999.0,85,-99.99,,,0.00,weatherlink.com 1.10,2013-02-11 21:12:00,
2013-02-11 13:27:00,44.9,41.0,30.34,SSE,168,0.0,-999.0,85,-99.99,,,0.00,weatherlink.com 1.10,2013-02-11 21:27:00,
2013-02-11 13:42:00,44.6,41.0,30.34,SSW,196,4.0,-999.0,86,-99.99,,,0.00,weatherlink.com 1.10,2013-02-11 21:42:00,
2013-02-11 13:57:00,44.7,41.0,30.34,SSE,165,3.0,-999.0,86,-99.99,,,0.00,weatherlink.com 1.10,2013-02-11 21:57:00,
2013-02-11 14:12:00,44.8,41.0,30.34,SSE,147,0.0,-999.0,86,-99.99,,,0.00,weatherlink.com 1.10,2013-02-11 22:12:00,
2013-02-11 14:27:00,44.9,41.0,30.34,SSE,148,0.0,-999.0,86,-99.99,,,0.00,weatherlink.com 1.10,2013-02-11 22:27:00,
2013-02-11 14:42:00,44.6,41.0,30.34,ESE,122,3.0,-999.0,86,-99.99,,,0.00,weatherlink.com 1.10,2013-02-11 22:42:00,
2013-02-11 14:57:00,44.6,40.0,30.33,SE,126,0.0,-999.0,85,-99.99,,,0.00,weatherlink.com 1.10,2013-02-11 22:57:00,
2013-02-11 15:12:00,44.5,40.0,30.33,ESE,113,0.0,-999.0,85,-99.99,,,0.00,weatherlink.com 1.10,2013-02-11 23:12:00,
2013-02-11 15:27:00,44.9,41.0,30.33,SE,135,0.0,-999.0,85,-99.99,,,0.00,weatherlink.com 1.10,2013-02-11 23:27:00,
2013-02-11 15:42:00,45.1,41.0,30.33,SE,130,0.0,-999.0,85,-99.99,,,0.00,weatherlink.com 1.10,2013-02-11 23:42:00,
2013-02-11 15:57:00,45.3,41.0,30.34,SSE,155,0.0,-999.0,85,-99.99,,,0.00,weatherlink.com 1.10,2013-02-11 23:57:00,
2013-02-11 16:12:00,45.2,41.0,30.34,SSE,159,3.0,-999.0,85,-99.99,,,0.00,weatherlink.com 1.10,2013-02-12 00:12:00,
2013-02-11 16:27:00,45.0,41.0,30.34,SSE,164,2.0,-999.0,86,-99.99,,,0.00,weatherlink.com 1.10,2013-02-12 00:27:00,
2013-02-11 16:42:00,45.0,41.0,30.34,South,174,5.0,-999.0,86,-99.99,,,0.00,weatherlink.com 1.10,2013-02-12 00:42:00,
2013-02-11 16:57:00,44.6,40.0,30.33,SSE,167,2.0,-999.0,85,-99.99,,,0.00,weatherlink.com 1.10,2013-02-12 00:57:00,
2013-02-11 17:12:00,44.0,40.0,30.33,SSE,167,3.0,-999.0,85,-99.99,,,0.00,weatherlink.com 1.10,2013-02-12 01:12:00,
2013-02-11 17:27:00,43.6,39.0,30.34,SSE,167,0.0,-999.0,84,-99.99,,,0.00,weatherlink.com 1.10,2013-02-12 01:27:00,
2013-02-11 17:42:00,43.4,39.0,30.34,SSE,167,0.0,-999.0,84,-99.99,,,0.00,weatherlink.com 1.10,2013-02-12 01:42:00,
2013-02-11 17:57:00,43.1,38.0,30.34,SSE,167,0.0,-999.0,83,-99.99,,,0.00,weatherlink.com 1.10,2013-02-12 01:57:00,
2013-02-11 18:12:00,42.9,38.0,30.34,SSE,167,0.0,-999.0,83,-99.99,,,0.00,weatherlink.com 1.10,2013-02-12 02:12:00,
2013-02-11 18:27:00,42.8,38.0,30.34,SSE,167,1.0,-999.0,83,-99.99,,,0.00,weatherlink.com 1.10,2013-02-12 02:27:00,
2013-02-11 18:42:00,42.8,38.0,30.34,SSE,167,2.0,-999.0,83,-99.99,,,0.00,weatherlink.com 1.10,2013-02-12 02:42:00,
2013-02-11 18:57:00,42.6,38.0,30.34,South,169,0.0,-999.0,83,-99.99,,,0.00,weatherlink.com 1.10,2013-02-12 02:57:00,
2013-02-11 19:12:00,42.3,38.0,30.34,SSE,165,3.0,-999.0,83,-99.99,,,0.00,weatherlink.com 1.10,2013-02-12 03:12:00,
2013-02-11 19:27:00,42.2,37.0,30.35,SSE,147,0.0,-999.0,83,-99.99,,,0.00,weatherlink.com 1.10,2013-02-12 03:27:00,
2013-02-11 19:42:00,42.0,37.0,30.34,South,175,2.0,-999.0,82,-99.99,,,0.00,weatherlink.com 1.10,2013-02-12 03:42:00,
2013-02-11 19:57:00,42.0,37.0,30.35,South,173,1.0,-999.0,82,-99.99,,,0.00,weatherlink.com 1.10,2013-02-12 03:57:00,
2013-02-11 20:12:00,41.9,37.0,30.34,South,173,2.0,-999.0,82,-99.99,,,0.00,weatherlink.com 1.10,2013-02-12 04:12:00,
2013-02-11 20:27:00,41.9,37.0,30.34,South,173,1.0,-999.0,82,-99.99,,,0.00,weatherlink.com 1.10,2013-02-12 04:27:00,
2013-02-11 20:42:00,41.9,37.0,30.34,South,173,0.0,-999.0,82,-99.99,,,0.00,weatherlink.com 1.10,2013-02-12 04:42:00,
2013-02-11 20:57:00,41.9,37.0,30.34,South,173,0.0,-999.0,82,-99.99,,,0.00,weatherlink.com 1.10,2013-02-12 04:57:00,
2013-02-11 21:12:00,41.8,37.0,30.35,South,173,0.0,-999.0,82,-99.99,,,0.00,weatherlink.com 1.10,2013-02-12 05:12:00,
2013-02-11 21:27:00,41.8,37.0,30.34,South,173,0.0,-999.0,82,-99.99,,,0.00,weatherlink.com 1.10,2013-02-12 05:27:00,
2013-02-11 21:42:00,41.7,37.0,30.34,South,173,2.0,-999.0,82,-99.99,,,0.00,weatherlink.com 1.10,2013-02-12 05:42:00,
2013-02-11 21:57:00,41.6,37.0,30.34,South,173,0.0,-999.0,82,-99.99,,,0.00,weatherlink.com 1.10,2013-02-12 05:57:00,
2013-02-11 22:12:00,41.5,36.0,30.34,South,173,0.0,-999.0,81,-99.99,,,0.00,weatherlink.com 1.10,2013-02-12 06:12:00,
2013-02-11 22:27:00,41.5,36.0,30.35,South,173,0.0,-999.0,81,-99.99,,,0.00,weatherlink.com 1.10,2013-02-12 06:27:00,
2013-02-11 22:42:00,41.6,36.0,30.35,South,173,0.0,-999.0,81,-99.99,,,0.00,weatherlink.com 1.10,2013-02-12 06:42:00,
2013-02-11 22:57:00,41.6,36.0,30.36,South,173,0.0,-999.0,81,-99.99,,,0.00,weatherlink.com 1.10,2013-02-12 06:57:00,
2013-02-11 23:12:00,41.5,36.0,30.36,South,173,0.0,-999.0,81,-99.99,,,0.00,weatherlink.com 1.10,2013-02-12 07:12:00,
2013-02-11 23:27:00,41.4,36.0,30.36,South,173,0.0,-999.0,81,-99.99,,,0.00,weatherlink.com 1.10,2013-02-12 07:27:00,
2013-02-11 23:42:00,41.4,36.0,30.36,South,173,0.0,-999.0,81,-99.99,,,0.00,weatherlink.com 1.10,2013-02-12 07:42:00,
2013-02-11 23:57:00,41.3,36.0,30.36,South,173,0.0,-999.0,81,-99.99,,,0.00,weatherlink.com 1.10,2013-02-12 07:57:00,